GLONASS-K 2

Last updated on Wed Sep 17 2025 00:02:34 GMT+0000 (Coordinated Universal Time)

1 40315U 14075A 25259.25315579 -.00000011 00000+0 00000+0 0 9991 2 40315 63.6164 199.8533 0021255 209.9592 149.9085 2.13101292 84010
UTC large
Height (km)
Speed (km/s)
/
Latitude / Longitude
Inclination (degrees)
Orbital Period (minutes)
Azimuth
Elevation
Range (km)
Doppler Factor

Next 0 passes for location: London (51.5072 / 0.1276)

Sorry there are no passes over London.